This is the latest recevied weather packets stored in our database for station/object OK1FET-5. If no packets are shown the sender has not sent any weather packets the latest 10 day(s).
| Time | Temp. | Humidity | Pressure | Rain* | Wind** | Luminosity | Snow |
|---|---|---|---|---|---|---|---|
| 1778065302 | 22.78° C | 57% | 1007.5 hPa | - | - | - | - |
| 1778065007 | 23.33° C | 55% | 1007.4 hPa | - | - | - | - |
| 1778064711 | 23.33° C | 57% | 1007.5 hPa | - | - | - | - |
| 1778064416 | 22.22° C | 59% | 1007.5 hPa | - | - | - | - |
| 1778064120 | 21.67° C | 59% | 1007.5 hPa | - | - | - | - |
| 1778063825 | 21.67° C | 60% | 1007.5 hPa | - | - | - | - |
| 1778063530 | 21.11° C | 60% | 1007.5 hPa | - | - | - | - |
| 1778063235 | 21.67° C | 60% | 1007.5 hPa | - | - | - | - |
| 1778062940 | 21.67° C | 61% | 1007.7 hPa | - | - | - | - |
| 1778062645 | 21.67° C | 61% | 1007.6 hPa | - | - | - | - |
| 1778062349 | 21.11° C | 59% | 1007.6 hPa | - | - | - | - |
| 1778062054 | 21.11° C | 59% | 1007.5 hPa | - | - | - | - |
| 1778061464 | 21.11° C | 62% | 1007.7 hPa | - | - | - | - |
| 1778061168 | 21.11° C | 64% | 1007.5 hPa | - | - | - | - |
| 1778060873 | 20° C | 63% | 1007.5 hPa | - | - | - | - |
| 1778060283 | 20° C | 64% | 1007.5 hPa | - | - | - | - |
| 1778059988 | 20° C | 63% | 1007.5 hPa | - | - | - | - |
| 1778059693 | 20° C | 65% | 1007.5 hPa | - | - | - | - |
| 1778059398 | 20.56° C | 64% | 1007.3 hPa | - | - | - | - |
| 1778059103 | 20.56° C | 66% | 1007.4 hPa | - | - | - | - |
| 1778058808 | 20° C | 66% | 1007.4 hPa | - | - | - | - |
| 1778058513 | 20° C | 65% | 1007.5 hPa | - | - | - | - |
| 1778058218 | 20° C | 66% | 1007.6 hPa | - | - | - | - |
| 1778057923 | 20.56° C | 66% | 1007.4 hPa | - | - | - | - |
| 1778057627 | 20.56° C | 65% | 1007.5 hPa | - | - | - | - |
* Rain since midnight (hover to see other rain measurements)
** Current wind speed in m/s (hover to see current wind gust speed)